Regional Weather Roundup
Issued by NWS Little Rock, AR

Home | Current Version | Previous Version | Graphics & Text | Print | Product List | Glossary On
Versions: 1 2 3 4 5 6 7 8 9 10 11 12 13 14 15 16 17 18 19 20 21 22 23 24 25 26 27 28 29 30 31 32 33 34 35 36 37 38 39 40 41 42 43 44 45 46 47 48 49 50
000
ASUS44 KLZK 272105
RWRLZK

WEATHER ROUNDUP FOR ARKANSAS
NATIONAL WEATHER SERVICE LITTLE ROCK AR
300 PM CST THU NOV 27 2014

NOTE: "FAIR" INDICATES FEW OR NO CLOUDS BELOW 12,000 FEET WITH NO
SIGNIFICANT WEATHER AND/OR OBSTRUCTIONS TO VISIBILITY.

ARZ001-003-010-029-272200-
NORTHWEST ARKANSAS

CITY           SKY/WX    TMP DP  RH WIND       PRES   REMARKS
FAYETTEVILLE   SUNNY     45  14  28 CALM      30.43F
FORT SMITH     SUNNY     48  22  35 NE5       30.45F
HARRISON       SUNNY     44  19  36 NW5       30.44F
BENTONVILLE    SUNNY     43  23  45 CALM      30.44F
ROGERS         SUNNY     42  22  44 NE5       30.43F
SILOAM SPGS    SUNNY     45  18  33 CALM      30.44F
HIGHFILL       SUNNY     43  24  47 E5        30.42F
SPRINGDALE     MOSUNNY   43  18  36 NE5       30.44F
$$

ARZ004-005-016-272200-
NORTH CENTRAL ARKANSAS

CITY           SKY/WX    TMP DP  RH WIND       PRES   REMARKS
BATESVILLE     SUNNY     46  25  42 W3        30.46S
FLIPPIN        SUNNY     45  19  36 N3        30.46S
MTN HOME       SUNNY     43  22  43 W6        30.44F
$$

ARZ040-041-272200-
WEST CENTRAL ARKANSAS

CITY           SKY/WX    TMP DP  RH WIND       PRES   REMARKS
MENA           SUNNY     52  25  35 E3        30.43F
MOUNT IDA      SUNNY     50  25  37 VRB3      30.42F
$$

ARZ009-017-025-026-028-272200-
NORTHEAST ARKANSAS

CITY           SKY/WX    TMP DP  RH WIND       PRES   REMARKS
CORNING        FAIR      45  27  49 NW5       30.47S
JONESBORO      SUNNY     45  29  53 CALM      30.47S
NEWPORT        SUNNY     47  27  46 CALM      30.48F
WALNUT RIDGE   SUNNY     46  25  42 N5        30.46S
BLYTHEVILLE    CLOUDY    54  30  40 N5        30.49R
$$

ARZ022-023-033-042-044-272200-
CENTRAL ARKANSAS

CITY           SKY/WX    TMP DP  RH WIND       PRES   REMARKS
LITTLE ROCK    MOSUNNY   50  23  34 CALM      30.49F
N LITTLE ROCK  MOSUNNY   47  29  50 SW5       30.49F
JACKSONVILLE   SUNNY     49  26  40 NW5       30.47F
SEARCY         SUNNY     49  26  41 CALM      30.48F
HOT SPRINGS    SUNNY     48  26  42 VRB3      30.46F
RUSSELLVILLE   SUNNY     49  26  41 VRB5      30.46F
CLINTON        FAIR      48  25  40 CALM      30.47S
$$

ARZ036-272200-
EAST ARKANSAS

CITY           SKY/WX    TMP DP  RH WIND       PRES   REMARKS
WEST MEMPHIS   MOSUNNY   45  30  55 NE5       30.47S
$$

ARZ050-053-066-070-073-272200-
SOUTHWEST ARKANSAS

CITY           SKY/WX    TMP DP  RH WIND       PRES   REMARKS
ARKADELPHIA    FAIR      50  29  44 E5        30.48F
CAMDEN         SUNNY     54  25  32 MISG      30.48S
TEXARKANA      SUNNY     52  27  38 E5        30.45F
EL DORADO      SUNNY     52  28  39 VRB5      30.47S
DE QUEEN       SUNNY     53  26  35 E5        30.44F
$$

ARZ056-057-069-272200-
SOUTHEAST ARKANSAS

CITY           SKY/WX    TMP DP  RH WIND       PRES   REMARKS
PINE BLUFF     SUNNY     46  26  45 CALM      30.49F
STUTTGART      SUNNY     46  28  49 NW5       30.50S
MONTICELLO     SUNNY     49  28  44 W3        30.48S

$$




USA.gov is the U.S. government's official web portal to all federal, state and local government web resources and services.